This is the latest recevied weather packets stored in our database for station/object K5GHS-1. If no packets are shown the sender has not sent any weather packets the latest 1 day(s).
| Time | Temp. | Humidity | Pressure | Rain* | Wind** | Luminosity | Snow |
|---|---|---|---|---|---|---|---|
| 1777989266 | 23.33° C | 82% | 1003.2 hPa | 0 mm | 0.45 m/s, 125° | 114 W/m² | - |
| 1777988963 | 23.33° C | 83% | 1003.1 hPa | 0 mm | 0.45 m/s, 78° | 105 W/m² | - |
| 1777988659 | 22.78° C | 83% | 1003.3 hPa | 0 mm | 0.45 m/s, 140° | 83 W/m² | - |
| 1777988356 | 22.78° C | 83% | 1002.8 hPa | 0 mm | 0.45 m/s, 76° | 65 W/m² | - |
| 1777988053 | 22.78° C | 82% | 1002.8 hPa | 0 mm | 1.79 m/s, 89° | 64 W/m² | - |
| 1777987749 | 22.78° C | 83% | 1002.7 hPa | 0 mm | 1.34 m/s, 72° | 77 W/m² | - |
| 1777987446 | 22.78° C | 83% | 1002.7 hPa | 0 mm | 0.45 m/s, 74° | 82 W/m² | - |
| 1777987143 | 22.78° C | 83% | 1002.8 hPa | 0 mm | 0.45 m/s, 73° | 88 W/m² | - |
| 1777986840 | 22.78° C | 83% | 1003.1 hPa | 0 mm | 0.45 m/s, 77° | 71 W/m² | - |
| 1777986538 | 22.78° C | 83% | 1003.2 hPa | 0 mm | 0.89 m/s, 160° | 59 W/m² | - |
| 1777986236 | 22.78° C | 83% | 1002.6 hPa | 0 mm | 0 m/s | 32 W/m² | - |
| 1777985933 | 22.78° C | 83% | 1003 hPa | 0 mm | 1.34 m/s, 129° | 44 W/m² | - |
| 1777985631 | 22.78° C | 83% | 1003 hPa | 0 mm | 1.34 m/s, 106° | 35 W/m² | - |
| 1777985326 | 22.78° C | 84% | 1002.7 hPa | 0 mm | 0.89 m/s, 21° | 35 W/m² | - |
| 1777985023 | 22.22° C | 84% | 1002.7 hPa | 0 mm | 0.45 m/s, 127° | 29 W/m² | - |
| 1777984719 | 22.22° C | 84% | 1002.5 hPa | 0 mm | 1.34 m/s, 151° | 29 W/m² | - |
| 1777984416 | 22.22° C | 84% | 1002.3 hPa | 0 mm | 0.89 m/s, 134° | 20 W/m² | - |
| 1777984112 | 22.78° C | 84% | 1002.4 hPa | 0 mm | 0.89 m/s, 152° | 19 W/m² | - |
| 1777983810 | 22.22° C | 84% | 1002.4 hPa | 0 mm | 0 m/s | 19 W/m² | - |
| 1777983506 | 22.22° C | 84% | 1002.3 hPa | 0 mm | 0.45 m/s, 79° | 12 W/m² | - |
| 1777983204 | 22.22° C | 84% | 1002.2 hPa | 0 mm | 0.45 m/s, 143° | 12 W/m² | - |
| 1777982899 | 22.22° C | 84% | 1002.2 hPa | 0 mm | 0.45 m/s, 208° | 12 W/m² | - |
| 1777982596 | 22.22° C | 84% | 1002.3 hPa | 0 mm | 0.45 m/s, 90° | 8 W/m² | - |
| 1777982294 | 22.22° C | 84% | 1002.1 hPa | 0 mm | 0.45 m/s, 85° | 4 W/m² | - |
| 1777981992 | 22.22° C | 84% | 1002.2 hPa | 0 mm | 0.89 m/s, 105° | 5 W/m² | - |
* Rain latest hour (hover to see other rain measurements)
** Current wind speed in m/s (hover to see current wind gust speed)